Date String (YYYY-MM-DD hh:mm:ss) UTC,Instrument flags,Ambient pressure (hPa),Sample flow (lpm),Bypass flow (lpm),Sample temperature (°C),Ambient temperature (°C),ASC tube jacket temperature (°C),LED temperature (°C),Box temperature (°C),Sample RH (%),Span deviation,Mass concentration (μg/m³),Mass concentration (μg/m³),Mass concentration (μg/m³)
DateTimeUTC,F1_M11,P_M11,Q1_M11,Q2_M11,T1_M11,T2_M11,T3_M11,T4_M11,T5_M11,U1_M11,ZSPAN_M11,X0_M11,X2_M11,X1_M11
2023-02-16 21:00:00,,0827.1,5.01,0.00,22.0,20.4,00.0,31.0,23.8,07.1,0000.0,0008.52,0004.80,0004.34
2023-02-16 21:01:00,,0827.1,5.01,0.00,22.0,20.5,00.0,30.9,23.9,07.2,0000.0,0008.51,0004.77,0004.31
2023-02-16 21:02:00,,0827.2,4.99,0.00,22.0,20.6,00.0,30.9,23.9,07.3,0000.0,0008.66,0004.78,0004.28
2023-02-16 21:03:00,,0827.1,5.02,0.00,22.1,20.6,00.0,30.9,23.9,07.4,0000.0,0009.19,0004.73,0004.25
2023-02-16 21:04:00,,0827.3,5.01,0.00,22.1,20.7,00.0,30.9,23.9,07.5,0000.0,0009.13,0004.71,0004.22
2023-02-16 21:05:00,,0827.5,5.01,0.00,22.1,20.6,00.0,30.9,23.9,07.1,0000.0,0009.01,0004.69,0004.20
2023-02-16 21:06:00,,0827.3,4.98,0.00,22.0,20.5,00.0,30.9,23.8,07.0,0000.0,0008.92,0004.67,0004.18
2023-02-16 21:07:00,,0827.2,4.99,0.00,22.0,20.3,00.0,30.9,23.7,07.0,0000.0,0009.10,0004.65,0004.16
2023-02-16 21:08:00,,0827.5,5.00,0.00,22.0,20.2,00.0,30.9,23.6,07.1,0000.0,0009.23,0004.63,0004.13
2023-02-16 21:09:00,,0827.6,4.99,0.00,22.0,20.2,00.0,30.9,23.7,06.9,0000.0,0009.19,0004.58,0004.10
2023-02-16 21:10:00,,0827.3,5.01,0.00,22.0,20.3,00.0,30.9,23.7,07.0,0000.0,0009.20,0004.56,0004.09
2023-02-16 21:11:00,,0827.1,5.00,0.00,22.0,20.3,00.0,30.9,23.8,07.3,0000.0,0009.22,0004.56,0004.08
2023-02-16 21:12:00,,0827.1,5.02,0.00,22.0,20.4,00.0,30.9,23.8,07.5,0000.0,0009.33,0004.56,0004.08
2023-02-16 21:13:00,,0827.2,4.98,0.00,22.0,20.5,00.0,30.9,23.8,07.6,0000.0,0009.31,0004.54,0004.07
2023-02-16 21:14:00,,0827.0,4.99,0.00,22.0,20.5,00.0,30.9,23.8,07.1,0000.0,0008.60,0004.56,0004.07
2023-02-16 21:15:00,,0827.0,4.99,0.00,22.0,20.5,00.0,30.9,23.8,07.3,0000.0,0008.62,0004.55,0004.06
2023-02-16 21:16:00,,0827.2,5.01,0.00,22.0,20.5,00.0,30.9,23.8,07.6,0000.0,0008.71,0004.55,0004.06
2023-02-16 21:17:00,,0827.1,4.99,0.00,22.0,20.4,00.0,30.9,23.7,07.0,0000.0,0008.98,0004.55,0004.05
2023-02-16 21:18:00,,0827.0,4.99,0.00,21.9,20.3,00.0,30.9,23.6,06.8,0000.0,0009.08,0004.54,0004.05
2023-02-16 21:19:00,,0827.0,5.01,0.00,21.9,20.3,00.0,30.8,23.7,07.1,0000.0,0008.83,0004.51,0004.04
2023-02-16 21:20:00,,0827.0,5.01,0.00,22.0,21.3,00.0,30.8,23.9,07.1,0000.0,0008.79,0004.52,0004.04
2023-02-16 21:21:00,,0827.1,4.98,0.00,22.1,22.5,00.0,30.8,24.2,07.4,0000.0,0008.60,0004.53,0004.04
2023-02-16 21:22:00,,0827.0,4.98,0.00,22.3,23.0,00.0,30.9,24.4,07.7,0000.0,0008.56,0004.51,0004.03
2023-02-16 21:23:00,,0827.0,4.99,0.00,22.3,22.5,00.0,30.9,24.4,07.5,0000.0,0008.54,0004.51,0004.02
2023-02-16 21:24:00,,0827.0,5.00,0.00,22.4,22.2,00.0,31.0,24.4,07.4,0000.0,0008.60,0004.51,0004.02
2023-02-16 21:25:00,,0827.1,4.99,0.00,22.4,21.9,00.0,31.0,24.3,07.0,0000.0,0008.58,0004.50,0004.02
2023-02-16 21:26:00,,0826.9,5.01,0.00,22.4,21.6,00.0,31.1,24.3,07.6,0000.0,0008.78,0004.51,0004.03
2023-02-16 21:27:00,,0826.9,5.00,0.00,22.4,21.5,00.0,31.1,24.3,07.4,0000.0,0008.69,0004.49,0004.04
2023-02-16 21:28:00,,0826.9,4.99,0.00,22.4,21.3,00.0,31.1,24.2,07.2,0000.0,0008.49,0004.49,0004.06
2023-02-16 21:29:00,,0826.9,5.01,0.00,22.4,21.2,00.0,31.1,24.2,07.3,0000.0,0008.19,0004.50,0004.06
2023-02-16 21:30:00,,0826.9,5.00,0.00,22.4,21.1,00.0,31.1,24.2,07.3,0000.0,0008.24,0004.53,0004.07
2023-02-16 21:31:00,,0826.9,5.02,0.00,22.4,21.1,00.0,31.1,24.3,07.5,0000.0,0008.24,0004.55,0004.09
2023-02-16 21:32:00,,0827.0,5.00,0.00,22.4,21.1,00.0,31.2,24.3,07.4,0000.0,0008.22,0004.56,0004.10
2023-02-16 21:33:00,,0827.0,5.00,0.00,22.4,21.1,00.0,31.2,24.3,07.5,0000.0,0008.20,0004.58,0004.11
2023-02-16 21:34:00,,0826.9,4.98,0.00,22.4,21.1,00.0,31.2,24.3,07.4,0000.0,0008.19,0004.60,0004.13
2023-02-16 21:35:00,,0826.9,5.00,0.00,22.4,21.1,00.0,31.2,24.3,07.3,0000.0,0008.01,0004.58,0004.14
2023-02-16 21:36:00,,0826.9,5.00,0.00,22.4,21.1,00.0,31.2,24.3,06.8,0000.0,0007.80,0004.53,0004.11
2023-02-16 21:37:00,,0826.9,4.99,0.00,22.4,21.0,00.0,31.2,24.3,06.9,0000.0,0007.66,0004.51,0004.09
2023-02-16 21:38:00,,0826.9,4.99,0.00,22.4,21.0,00.0,31.2,24.3,07.6,0000.0,0007.58,0004.48,0004.07
2023-02-16 21:39:00,,0826.9,5.00,0.00,22.4,21.0,00.0,31.2,24.3,07.9,0000.0,0007.60,0004.51,0004.07
2023-02-16 21:40:00,,0826.9,5.03,0.00,22.4,21.0,00.0,31.2,24.3,07.2,0000.0,0007.54,0004.50,0004.07
2023-02-16 21:41:00,,0827.1,4.99,0.00,22.4,21.0,00.0,31.2,24.3,07.3,0000.0,0007.62,0004.51,0004.07
2023-02-16 21:42:00,,0827.1,5.01,0.00,22.4,21.1,00.0,31.2,24.3,06.8,0000.0,0007.57,0004.49,0004.05
2023-02-16 21:43:00,,0827.1,4.99,0.00,22.4,21.1,00.0,31.2,24.3,06.8,0000.0,0007.77,0004.47,0004.03
2023-02-16 21:44:00,,0826.9,4.99,0.00,22.4,21.0,00.0,31.2,24.3,06.9,0000.0,0007.94,0004.43,0004.00
2023-02-16 21:45:00,,0826.9,4.99,0.00,22.4,21.0,00.0,31.2,24.3,07.0,0000.0,0008.00,0004.43,0003.98
2023-02-16 21:46:00,,0826.9,4.99,0.00,22.4,21.0,00.0,31.2,24.3,06.8,0000.0,0008.85,0004.43,0003.98
2023-02-16 21:47:00,,0826.9,5.00,0.00,22.4,20.9,00.0,31.3,24.2,06.7,0000.0,0009.40,0004.44,0003.99
2023-02-16 21:48:00,,0826.9,5.01,0.00,22.4,20.9,00.0,31.2,24.2,07.2,0000.0,0009.38,0004.42,0003.99
2023-02-16 21:49:00,,0826.9,5.02,0.00,22.4,20.9,00.0,31.2,24.2,07.2,0000.0,0009.52,0004.47,0004.02
2023-02-16 21:50:00,,0827.3,4.99,0.00,22.4,20.9,00.0,31.2,24.2,06.8,0000.0,0009.52,0004.42,0003.99
2023-02-16 21:51:00,,0827.1,5.01,0.00,22.4,20.9,00.0,31.2,24.2,06.9,0000.0,0009.64,0004.42,0003.97
2023-02-16 21:52:00,,0826.9,5.00,0.00,22.4,21.0,00.0,31.2,24.2,06.4,0000.0,0009.43,0004.35,0003.94
2023-02-16 21:53:00,,0826.9,5.01,0.00,22.4,21.0,00.0,31.2,24.3,06.3,0000.0,0009.34,0004.29,0003.90
2023-02-16 21:54:00,,0827.2,5.00,0.00,22.4,21.0,00.0,31.2,24.2,06.1,0000.0,0008.99,0004.23,0003.86
2023-02-16 21:55:00,,0827.1,4.99,0.00,22.4,20.9,00.0,31.2,24.2,06.1,0000.0,0008.83,0004.21,0003.83
2023-02-16 21:56:00,,0826.9,5.00,0.00,22.4,20.9,00.0,31.2,24.2,06.3,0000.0,0008.68,0004.14,0003.79
2023-02-16 21:57:00,,0826.9,5.00,0.00,22.4,20.9,00.0,31.2,24.2,06.2,0000.0,0008.11,0004.12,0003.76
2023-02-16 21:58:00,,0826.9,5.00,0.00,22.4,20.9,00.0,31.2,24.2,06.1,0000.0,0007.36,0004.10,0003.72
2023-02-16 21:59:00,,0826.9,5.00,0.00,22.4,20.8,00.0,31.2,24.2,06.1,0000.0,0007.35,0004.10,0003.68
